Weather Roundup
Issued by NWS Chicago, IL

Home | Current Version | Previous Version | Text Only | Print | Product List | Glossary Off
Versions: 1 2 3 4 5 6 7 8 9 10 11 12 13 14 15 16 17 18 19 20 21 22 23 24 25 26 27 28 29 30 31 32 33 34 35 36 37 38 39 40 41 42 43 44 45 46 47 48 49 50

000
NZUS59 KLOT 260607
HRRLOT

CHICAGO AREA WEATHER ROUNDUP
NATIONAL WEATHER SERVICE CHICAGO/ROMEOVILLE IL
100 AM CDT WED APR 26 2017

NOTE: "FAIR" INDICATES FEW OR NO CLOUDS BELOW 12,000 FEET WITH NO
SIGNIFICANT WEATHER AND/OR OBSTRUCTIONS TO VISIBILITY.

* THESE STATIONS ARE NOT UNDER NWS QUALITY CONTROL. THEY ALSO MAY NOT
  REPORT WEATHER SUCH AS PRECIPITATION OR FOG.

ILZ005-006-012>014-019>023-260700-
NORTHEAST ILLINOIS

CITY           SKY/WX    TMP DP  RH WIND       PRES   REMARKS
OHARE          CLOUDY    68  53  58 S10       29.53F
6HR MIN TEMP:  66; 6HR MAX TEMP:  76;

MIDWAY         CLOUDY    69  54  58 S10       29.55F
6HR MIN TEMP:  69; 6HR MAX TEMP:  78;

AURORA         CLOUDY    68  54  60 SE12      29.53F
6HR MIN TEMP:  67; 6HR MAX TEMP:  76;

LANSING*       CLOUDY    65  56  73 SE8       29.57F
JOLIET*        CLOUDY    68  56  64 SE7       29.54F
WAUKEGAN       PTCLDY    57  51  80 SE10      29.54F
6HR MIN TEMP:  56; 6HR MAX TEMP:  60;

DUPAGE AIRPORT CLOUDY    68  55  63 S13       29.52F
6HR MIN TEMP:  68; 6HR MAX TEMP:  75;

WHEELING       CLOUDY    67  55  65 S9        29.55F
6HR MIN TEMP:  63; 6HR MAX TEMP:  73;

KANKAKEE*      CLOUDY    65  54  65 SE9       29.57S
MORRIS*        CLOUDY    68  54  61 S15       29.52F
LEWIS AIRPORT* CLOUDY    66  57  71 S14       29.54F
NORTHERLY ISL    N/A     59  53  80 SE6         N/A
$$

WIZ051-052-058>065-066-070>072-260700-
SOUTHEAST WISCONSIN

CITY           SKY/WX    TMP DP  RH WIND       PRES   REMARKS
MILWAUKEE      CLOUDY    59  51  75 SE13      29.55F
6HR MIN TEMP:  57; 6HR MAX TEMP:  62;

KENOSHA*       CLOUDY    59  51  75 SE8       29.54F
RACINE*        CLOUDY    56  48  74 S9        29.57F
WAUKESHA       CLOUDY    61  50  67 SE10      29.54F
WEST BEND      CLOUDY    59  50  72 SE7       29.54F
$$

INZ001>003-010>013-019-020-260700-
NORTHWEST INDIANA

CITY           SKY/WX    TMP DP  RH WIND       PRES   REMARKS
GARY*          CLOUDY    68  53  58 SE7       29.57F
6HR MIN TEMP:  68; 6HR MAX TEMP:  77;

MICHIGAN CITY* NOT AVBL
RENSSELAER*    NOT AVBL
VALPARAISO     CLOUDY    67  56  67 SE10      29.60F
$$

LMZ740>746-260700-
SOUTHERN LAKE MICHIGAN

STATION/POSITION TIME  SKY/WX   TEMP WIND        PRES    VSBY
                                AIR  DIR/SP/G
                 (UTC)          (F)  (DEG/KT/KT) (MB)    (MI)
HARRISON CRIB    0530            63  150/ 18/ 19   N/A
BURNHAM HARBOR   0600            59  130/  4/  6   N/A
CALUMET HARBOR   0548                150/  7/ 12 1000.7F
BURNS HARBOR     0540            69  160/  9/ 16 1002.4F
MICHIGAN CITY    0540            68  150/  9/ 10   N/A
$$

ABBREVIATIONS USED IN REMARKS
   TC - TEMPERATURE IN CELSIUS
  WCI - WIND CHILL INDEX
   HX - HEAT INDEX
  VSB - VISIBILITY
$$



USA.gov is the U.S. government's official web portal to all federal, state and local government web resources and services.